Location: Bad Rothenbrunn
(47.2167°N, 11.2167°E)
Time: 17:05:00
(UTC+00:00)

Cosmos 2219 Rocket - Pass Details

Date: 03 March 2021
Orbit: 826 x 848 km, 71.0° (Epoch: 19 April)

Event Time Altitude Azimuth Distance (km) Brightness Sun altitude
Rises 19:23:20 0° 202° (SSW) 3,353 5.4 -24.3°
Reaches altitude 10° 19:25:45 10° 202° (SSW) 2,425 4.6 -24.7°
Maximum altitude 19:31:18 83° 116° (ESE) 843 2.0 -25.6°
Drops below altitude 10° 19:36:56 10° 29° (NNE) 2,452 4.5 -26.5°
Sets 19:39:23 0° 28° (NNE) 3,393 5.3 -26.9°
